Location: Six Mile Lake
(44.9000°N, 79.7170°W)
Time: 19:34:14
(UTC-04:00)

NOAA 18 - Pass Details

Date: 03 July 2022
Orbit: 839 x 860 km, 98.9° (Epoch: 18 August)

Event Time Altitude Azimuth Distance (km) Brightness Sun altitude
Exits shadow 21:38:13 - 120° (ESE) 2,871 7.3 -5.0°
Reaches altitude 10° 21:39:25 10° 114° (ESE) 2,483 7.0 -5.2°
Maximum altitude 21:43:46 25° 61° (ENE) 1,685 6.6 -5.8°
Drops below altitude 10° 21:48:09 10° 9° (N) 2,504 8.1 -6.4°
Sets 21:50:55 0° 357° (N) 3,447 9.1 -6.7°
